Flag for U.S.A. Weather past 2 weeks in Syracuse, New York, U.S.A.

Now
54 °F

Scattered clouds.


Feels Like: 51 °F
Forecast: 25 / 54 °F
Wind: 12 mph from Southeast

Location: Syracuse Hancock International Airport


UV Index: 3 (Moderate)

Visibility: 10 mi


Pressure: 30.47 "Hg

Humidity: 25%

Dew point: 19 °F

Location of SyracuseLocation

Historic Weather in Syracuse

°F

Syracuse temperature yesterday

Maximum temperature yesterday: 36 °F (at 4:54 PM)
Minimum temperature yesterday: 22 °F (at 6:54 AM)
Average temperature yesterday: 29 °F

Past Weeks' High & Low Weather Summary

 TemperatureHumidityPressure
High82 °F (Apr 13, 4:54 PM)100% (Apr 8, 12:54 AM)30.67 "Hg (Apr 8, 12:54 AM)
Low22 °F (Apr 16, 6:54 AM)23% (Apr 10, 2:54 PM)29.27 "Hg (Apr 8, 9:54 AM)
Average45 °F66%29.96 "Hg
* Reported Apr 2 5:54 PM — Apr 17 5:54 PM, Syracuse, Weather by CustomWeather, © 2014

Note: Actual official high and low records may vary slightly from our data, if they occured in-between our weather recording intervals... More about our weather records

Advertising

Historic Weather Conditions — Data for Previous 24 hours

 ConditionsComfort  
Time TempWeatherWind HumidityBarometerVisibility
5:54 PM
Apr 17
55 °FBroken clouds.14 mph24%30.48 "Hg10 mi
4:54 PM55 °FBroken clouds.13 mph24%30.50 "Hg10 mi
3:54 PM55 °FBroken clouds.12 mph24%30.51 "Hg10 mi
2:54 PM54 °FBroken clouds.13 mph24%30.53 "Hg10 mi
1:54 PM52 °FBroken clouds.8 mph30%30.57 "Hg10 mi
12:54 PM49 °FBroken clouds.10 mph31%30.60 "Hg10 mi
11:54 AM46 °FBroken clouds.13 mph34%30.63 "Hg10 mi
10:54 AM42 °FBroken clouds.9 mph36%30.65 "Hg10 mi
9:54 AM40 °FBroken clouds.9 mph45%30.66 "Hg10 mi
8:54 AM33 °FBroken clouds.8 mph58%30.67 "Hg10 mi
7:54 AM28 °FBroken clouds.10 mph75%30.66 "Hg10 mi
6:54 AM25 °FPartly cloudy.6 mph78%30.65 "Hg10 mi
5:54 AM24 °FPassing clouds.5 mph81%30.63 "Hg10 mi
4:54 AM24 °FPassing clouds.6 mph84%30.62 "Hg10 mi
3:54 AM26 °FClear.5 mph69%30.62 "Hg10 mi
2:54 AM26 °FPassing clouds.3 mph71%30.62 "Hg10 mi
1:54 AM26 °FPassing clouds.3 mph74%30.62 "Hg10 mi
12:54 AM27 °FPassing clouds.No wind75%30.61 "Hg10 mi
11:54 PM
Apr 16
28 °FPassing clouds.No wind64%30.60 "Hg10 mi
10:54 PM28 °FPassing clouds.5 mph58%30.59 "Hg10 mi
9:54 PM30 °FPassing clouds.No wind54%30.58 "Hg10 mi
8:54 PM30 °FPassing clouds.5 mph45%30.58 "Hg10 mi
7:54 PM32 °FScattered clouds.7 mph40%30.56 "Hg10 mi
Weather by CustomWeather, © 2014

See weather overview